TimeEST,TemperatureF,Dew PointF,Humidity,Sea Level PressureIn,VisibilityMPH,Wind Direction,Wind SpeedMPH,Gust SpeedMPH,PrecipitationIn,Events,Conditions,WindDirDegrees,DateUTC
12:54 AM,25.0,18.0,75,30.07,10.0,SW,6.9,-,N/A,,Overcast,220,2013-12-19 05:54:00
1:54 AM,26.1,19.0,75,30.07,10.0,SW,5.8,-,N/A,,Overcast,220,2013-12-19 06:54:00
2:54 AM,26.1,19.0,75,30.06,10.0,SW,6.9,-,N/A,,Overcast,220,2013-12-19 07:54:00
3:54 AM,25.0,18.0,75,30.05,10.0,WSW,6.9,-,N/A,,Overcast,240,2013-12-19 08:54:00
4:54 AM,25.0,18.0,75,30.06,10.0,SW,5.8,-,N/A,,Overcast,220,2013-12-19 09:54:00
5:54 AM,25.0,17.1,72,30.04,10.0,SW,8.1,-,N/A,,Overcast,220,2013-12-19 10:54:00
6:54 AM,25.0,17.1,72,30.01,10.0,WSW,9.2,18.4,N/A,,Scattered Clouds,240,2013-12-19 11:54:00
7:54 AM,25.0,17.1,72,30.02,10.0,SW,10.4,17.3,N/A,,Clear,220,2013-12-19 12:54:00
8:54 AM,26.1,17.1,69,30.01,9.0,SW,15.0,23.0,N/A,,Clear,220,2013-12-19 13:54:00
9:54 AM,28.0,18.0,66,30.02,10.0,SW,11.5,21.9,N/A,,Clear,220,2013-12-19 14:54:00
10:54 AM,30.0,18.0,61,30.00,10.0,SSW,13.8,21.9,N/A,,Clear,200,2013-12-19 15:54:00
11:54 AM,32.0,19.0,59,29.97,10.0,SW,10.4,-,N/A,,Clear,220,2013-12-19 16:54:00
12:54 PM,34.0,19.0,54,29.96,10.0,SW,10.4,-,N/A,,Clear,220,2013-12-19 17:54:00
1:54 PM,35.1,19.9,54,29.96,10.0,SW,6.9,-,N/A,,Clear,220,2013-12-19 18:54:00
2:54 PM,35.1,19.9,54,29.96,10.0,SW,5.8,-,N/A,,Clear,230,2013-12-19 19:54:00
3:54 PM,34.0,21.0,59,30.00,3.0,WSW,4.6,-,N/A,,Haze,240,2013-12-19 20:54:00
4:54 PM,30.9,21.0,67,30.01,10.0,Calm,Calm,-,N/A,,Clear,0,2013-12-19 21:54:00
5:54 PM,28.9,21.0,72,30.04,10.0,Calm,Calm,-,N/A,,Clear,0,2013-12-19 22:54:00
6:54 PM,28.9,21.0,72,30.05,10.0,Calm,Calm,-,N/A,,Clear,0,2013-12-19 23:54:00
7:54 PM,34.0,21.9,61,30.07,10.0,SW,5.8,-,N/A,,Scattered Clouds,230,2013-12-20 00:54:00
8:54 PM,35.1,23.0,61,30.07,10.0,SSW,4.6,-,N/A,,Partly Cloudy,210,2013-12-20 01:54:00
9:54 PM,30.0,23.0,75,30.09,10.0,Calm,Calm,-,N/A,,Mostly Cloudy,0,2013-12-20 02:54:00
10:54 PM,30.9,23.0,72,30.08,10.0,West,3.5,-,N/A,,Clear,260,2013-12-20 03:54:00
11:54 PM,28.9,23.0,78,30.08,10.0,Calm,Calm,-,N/A,,Clear,0,2013-12-20 04:54:00